Vorticity
5 4 9 9 8 9 6 5 5 10 6 10 17 26 7 12 3 14 10 19 9 3 28 26 24 14 16 13 22 39 16 -2 16 12 5 14 -3 7 9 25 5 12 5 7 10 8 7
6 4 5 11 8 10 7 4 4 6 3 4 19 18 5 13 26 4 6 1 8 14 6 -20 18 26 17 -13 12 40 10 15 15 9 6 11 0 2 5 23 3 17 10 8 8 8 7
14 5 5 7 10 9 10 4 4 6 5 9 10 22 2 11 9 5 3 16 4 3 11 -1 15 15 24 35 14 2 14 15 14 -8 6 8 13 1 9 -8 13 9 8 8 9 7 5
13 9 5 5 8 9 13 8 5 3 7 6 12 15 9 4 12 33 16 5 9 13 11 46 60 23 -2 3 9 10 11 14 12 5 6 14 6 8 7 -2 7 4 6 -3 11 7 7
10 15 8 4 6 10 9 14 6 5 4 5 12 17 8 5 15 -1 5 5 5 -1 62 11 18 19 -1 10 7 17 8 13 9 9 12 6 4 19 8 11 -1 -12 20 2 12 6 3
4 9 16 8 5 5 11 10 12 5 6 3 6 9 7 6 9 18 27 15 16 1 -14 -5 -10 -1 10 8 9 13 18 8 6 5 12 6 15 10 12 3 14 7 12 2 9 13 5
4 5 8 17 8 6 6 11 13 11 5 -1 2 6 8 8 13 16 10 20 29 33 33 37 8 8 9 7 7 6 12 9 9 -1 13 11 8 12 4 3 17 13 20 6 6 4 11
5 4 5 9 16 10 6 7 11 14 14 5 -2 -0 -5 -4 -2 -5 3 14 10 11 7 4 8 10 10 5 9 5 4 4 13 25 -7 13 10 14 9 4 8 8 5 4 14 11 8
5 5 4 6 8 14 12 6 8 11 12 15 16 0 -4 -4 -14 -7 5 -12 -3 5 9 4 11 -1 6 10 6 9 3 6 12 15 5 6 18 8 6 4 6 4 12 13 -4 8 10
6 6 4 3 6 8 13 13 8 7 11 13 14 17 15 15 10 10 13 9 -17 -2 -11 21 -1 6 4 2 7 11 6 4 3 5 8 6 9 7 6 6 -3 11 7 7 6 7 5
6 6 6 3 3 5 8 12 16 8 7 7 12 14 17 19 13 12 12 15 16 11 -1 7 9 17 12 31 4 12 13 9 5 1 16 26 5 5 8 8 3 18 6 5 5 7 10
6 6 7 4 3 1 3 7 13 17 8 6 6 9 18 11 20 19 16 12 2 6 5 5 14 6 11 15 11 9 10 13 8 7 27 7 4 1 8 8 7 9 7 7 12 10 17
6 5 6 7 3 2 2 5 7 16 14 9 6 7 9 19 12 11 16 7 4 21 4 5 9 8 16 8 11 11 7 1 7 2 9 4 7 9 6 3 7 6 7 13 8 6 10
5 5 5 6 7 3 2 3 5 10 13 15 6 10 8 11 23 13 13 11 14 22 28 12 8 10 11 4 8 7 3 5 9 11 -3 6 7 2 12 -1 2 7 1 9 9 10 -3
5 6 6 6 8 6 4 3 5 5 16 12 13 9 9 11 15 9 15 14 18 2 12 6 -3 8 3 15 13 5 12 10 8 17 17 7 6 11 9 6 2 15 10 8 7 9 12
5 5 7 7 7 9 7 5 4 6 9 18 11 16 10 9 12 12 18 24 19 11 3 4 12 10 10 7 5 8 12 8 19 -7 12 14 6 16 5 11 10 -5 11 10 11 11 11
5 5 4 8 7 8 7 5 6 6 6 10 9 13 14 12 9 13 14 17 8 9 7 11 14 8 12 8 8 9 15 9 10 7 11 13 6 19 5 15 12 13 6 4 1 4 4
4 5 6 5 8 7 6 7 8 8 6 5 6 -3 14 14 16 10 11 11 9 6 7 11 8 8 10 9 8 7 10 9 10 13 9 1 9 8 8 5 4 3 5 8 -4 18 2
6 5 5 6 5 8 8 8 7 5 4 6 2 -3 4 11 11 10 9 8 6 6 8 9 10 8 5 8 6 6 6 8 7 7 7 11 15 7 15 25 20 3 15 2 -2 1 25
6 6 5 6 6 7 9 9 6 3 2 4 10 8 9 -2 6 11 11 8 8 7 7 5 8 8 7 8 9 9 6 7 6 5 6 5 10 -8 -13 3 -8 -1 6 13 5 2 -7
8 7 5 5 5 6 7 9 7 4 4 6 6 5 8 0 9 8 12 14 10 8 10 8 10 8 6 6 9 8 8 7 6 6 7 10 9 11 9 5 2 6 2 8 6 5 -7
5 6 6 5 5 6 6 8 8 7 6 3 6 8 8 10 11 12 10 9 14 14 11 6 9 3 7 7 -1 -3 1 5 7 6 8 9 6 2 2 28 23 18 25 22 13 6 9
6 6 5 6 6 6 6 7 8 10 8 7 8 6 7 8 8 12 10 7 1 17 17 12 15 13 10 8 7 8 5 4 -5 -2 5 6 7 14 15 5 -1 47 60 61 31 39 31
6 6 6 5 6 5 5 7 8 9 8 8 7 6 6 6 11 11 11 14 13 5 1 8 12 9 9 8 7 8 10 9 8 7 5 -2 15 7 2 35 19 25 -14 23 37 -3 11
6 5 5 6 6 7 6 6 6 9 9 9 9 5 5 5 10 9 11 10 10 10 13 12 8 4 8 14 18 29 25 38 33 34 19 15 4 -3 1 8 -17 35 22 17 4 9 14
6 7 7 5 6 6 7 7 6 7 8 10 10 8 4 -0 -2 6 8 6 14 16 17 21 20 18 18 14 16 13 2 -9 18 15 22 30 27 -14 14 9 2 1 0 -5 -5 25 18
8 8 8 8 6 7 7 8 8 9 9 10 9 8 7 7 10 2 8 12 5 3 5 5 10 15 15 14 15 14 18 -7 12 8 16 16 23 3 3 -6 14 10 17 3 18 13 -11
12 9 8 8 8 7 7 8 9 9 9 10 8 8 7 7 5 17 15 6 -1 6 7 -1 15 24 23 21 10 12 13 3 14 -1 -1 8 18 9 20 8 17 14 20 7 -8 -29 -9
6 12 13 11 9 9 9 9 9 9 9 9 11 8 7 7 -4 3 8 4 14 7 19 6 10 0 -5 -5 -8 8 2 -4 4 6 11 15 5 -13 -7 8 -14 -25 -20 -8 1 6 4
Height
3121 3116 3111 3105 3098 3092 3086 3081 3075 3068 3061 3053 3046 3043 3041 3032 3026 3020 3016 3013 3011 3008 3006 3008 3012 3016 3020 3027 3030 3030 3035 3040 3048 3053 3059 3070 3079 3086 3092 3094 3099 3103 3107 3113 3117 3121 3125
3122 3117 3113 3108 3101 3095 3089 3083 3078 3072 3065 3057 3050 3047 3044 3039 3033 3030 3025 3021 3018 3015 3016 3016 3017 3020 3027 3031 3034 3035 3041 3045 3052 3058 3065 3075 3084 3089 3092 3093 3100 3103 3108 3113 3116 3121 3125
3124 3119 3115 3110 3104 3098 3093 3087 3082 3076 3070 3062 3055 3050 3048 3044 3041 3037 3033 3029 3028 3025 3021 3021 3024 3028 3032 3036 3034 3042 3047 3052 3057 3061 3071 3078 3082 3088 3092 3095 3101 3105 3110 3114 3117 3121 3123
3126 3121 3116 3112 3107 3102 3096 3091 3086 3080 3074 3069 3061 3055 3051 3050 3046 3042 3041 3037 3034 3032 3028 3026 3028 3032 3038 3040 3046 3048 3052 3057 3063 3066 3071 3077 3083 3088 3092 3097 3103 3107 3112 3115 3118 3121 3123
3129 3124 3119 3113 3108 3105 3099 3094 3089 3084 3080 3074 3067 3062 3058 3053 3052 3051 3047 3046 3041 3037 3036 3034 3037 3042 3048 3053 3054 3057 3058 3063 3067 3072 3076 3081 3085 3089 3095 3099 3105 3108 3112 3116 3118 3120 3123
3132 3127 3122 3116 3111 3106 3103 3097 3092 3088 3084 3079 3074 3069 3065 3061 3058 3054 3051 3048 3048 3046 3045 3045 3047 3053 3058 3061 3061 3063 3065 3068 3071 3077 3081 3085 3088 3091 3097 3101 3105 3108 3111 3116 3117 3119 3122
3135 3130 3125 3120 3114 3109 3105 3101 3095 3090 3088 3084 3080 3076 3072 3068 3065 3062 3060 3056 3058 3056 3054 3053 3059 3059 3063 3066 3067 3069 3072 3076 3078 3081 3084 3087 3093 3094 3097 3099 3103 3108 3112 3116 3116 3118 3120
3138 3133 3128 3123 3118 3112 3108 3104 3099 3094 3090 3087 3085 3081 3077 3074 3071 3070 3068 3066 3063 3065 3063 3065 3066 3068 3069 3069 3073 3075 3078 3082 3084 3085 3087 3091 3091 3093 3097 3101 3104 3109 3113 3116 3116 3118 3120
3140 3136 3132 3127 3122 3116 3111 3107 3103 3098 3093 3089 3087 3085 3082 3079 3078 3076 3075 3074 3071 3071 3072 3075 3074 3075 3076 3078 3077 3080 3083 3084 3087 3089 3092 3091 3094 3096 3099 3102 3106 3109 3113 3115 3117 3118 3118
3142 3138 3134 3130 3125 3120 3115 3110 3106 3102 3097 3092 3088 3086 3084 3082 3081 3078 3077 3076 3076 3075 3077 3083 3081 3082 3082 3082 3083 3083 3086 3089 3089 3091 3092 3094 3096 3098 3101 3103 3106 3109 3111 3114 3116 3118 3118
3143 3140 3136 3133 3128 3123 3118 3114 3108 3104 3100 3096 3092 3088 3085 3082 3081 3080 3079 3076 3076 3076 3079 3089 3086 3086 3084 3086 3088 3088 3089 3090 3092 3092 3094 3098 3099 3101 3102 3105 3106 3109 3110 3113 3115 3115 3114
3144 3141 3138 3135 3131 3126 3121 3116 3112 3107 3103 3099 3095 3091 3087 3084 3081 3080 3079 3078 3078 3080 3087 3091 3090 3089 3090 3089 3090 3091 3092 3094 3095 3096 3096 3098 3100 3102 3103 3106 3108 3109 3112 3113 3113 3114 3115
3145 3142 3139 3136 3133 3128 3124 3120 3115 3110 3106 3102 3098 3094 3089 3086 3084 3081 3080 3080 3081 3081 3092 3094 3092 3091 3092 3093 3094 3094 3094 3095 3096 3100 3099 3101 3103 3103 3105 3108 3109 3110 3112 3114 3115 3114 3110
3146 3143 3140 3137 3134 3131 3126 3122 3118 3113 3108 3105 3101 3097 3093 3089 3085 3084 3083 3083 3081 3089 3090 3092 3092 3094 3094 3094 3096 3097 3098 3099 3100 3100 3102 3104 3108 3106 3106 3108 3109 3110 3112 3114 3114 3109 3109
3146 3144 3141 3138 3135 3132 3128 3125 3121 3116 3111 3107 3104 3101 3097 3093 3089 3087 3087 3085 3088 3091 3092 3093 3094 3097 3096 3096 3097 3097 3098 3099 3100 3100 3104 3104 3104 3104 3105 3107 3110 3111 3114 3114 3114 3112 3111
3145 3143 3141 3138 3136 3133 3130 3127 3123 3119 3115 3110 3107 3103 3099 3097 3094 3092 3090 3087 3091 3093 3094 3095 3097 3097 3099 3098 3099 3099 3099 3100 3100 3101 3102 3103 3105 3104 3106 3107 3109 3110 3112 3114 3113 3114 3108
3144 3142 3140 3138 3136 3134 3131 3128 3125 3122 3118 3114 3110 3106 3103 3101 3099 3096 3094 3093 3093 3095 3096 3097 3097 3098 3098 3099 3100 3100 3101 3101 3100 3101 3101 3103 3105 3107 3106 3106 3108 3109 3110 3111 3112 3113 3110
3142 3140 3139 3138 3135 3134 3131 3129 3126 3123 3120 3117 3114 3110 3107 3104 3103 3099 3098 3097 3098 3097 3097 3098 3099 3099 3100 3100 3100 3101 3102 3101 3101 3102 3102 3103 3104 3105 3106 3104 3104 3105 3107 3107 3109 3109 3108
3139 3139 3137 3136 3134 3133 3131 3129 3126 3124 3122 3119 3115 3112 3110 3107 3104 3102 3101 3101 3100 3099 3100 3099 3100 3101 3101 3101 3103 3102 3102 3102 3102 3102 3103 3104 3104 3105 3105 3105 3103 3102 3103 3104 3107 3105 3102
3135 3135 3135 3134 3132 3131 3130 3128 3126 3124 3122 3120 3117 3114 3111 3108 3106 3105 3103 3103 3102 3101 3100 3100 3101 3100 3101 3102 3102 3102 3102 3102 3102 3103 3103 3104 3103 3103 3102 3102 3101 3100 3100 3101 3103 3103 3098
3132 3131 3131 3131 3130 3129 3128 3126 3124 3123 3121 3120 3117 3115 3112 3109 3107 3105 3104 3103 3102 3102 3101 3101 3101 3101 3101 3101 3101 3101 3101 3101 3101 3101 3101 3101 3100 3099 3098 3098 3097 3096 3096 3095 3091 3088 3090
3126 3127 3127 3127 3127 3126 3125 3124 3122 3121 3120 3119 3117 3114 3112 3109 3107 3105 3104 3103 3102 3101 3101 3101 3101 3100 3100 3101 3101 3101 3100 3099 3099 3098 3097 3097 3097 3095 3093 3093 3091 3086 3086 3086 3086 3084 3081
3119 3120 3121 3121 3121 3121 3121 3121 3120 3119 3117 3116 3115 3113 3111 3109 3106 3104 3103 3102 3101 3100 3100 3099 3099 3099 3099 3098 3097 3097 3097 3096 3095 3095 3094 3094 3094 3093 3090 3089 3087 3081 3074 3074 3076 3076 3077
3113 3113 3114 3115 3115 3116 3116 3116 3116 3115 3114 3113 3112 3111 3109 3107 3105 3103 3101 3100 3099 3098 3098 3097 3096 3096 3097 3096 3095 3094 3093 3091 3090 3090 3090 3089 3091 3091 3086 3085 3083 3072 3070 3069 3069 3071 3072
3104 3107 3108 3107 3108 3109 3110 3111 3110 3111 3111 3109 3108 3107 3106 3104 3103 3101 3099 3097 3097 3096 3095 3094 3094 3093 3092 3091 3091 3089 3088 3086 3083 3082 3081 3084 3087 3088 3085 3080 3071 3067 3067 3067 3067 3069 3067
3095 3097 3100 3101 3101 3102 3104 3105 3105 3104 3105 3105 3104 3103 3102 3101 3099 3098 3097 3095 3094 3093 3092 3091 3090 3089 3089 3088 3088 3087 3086 3084 3082 3079 3077 3078 3081 3086 3083 3080 3070 3065 3064 3064 3064 3064 3063
3087 3089 3091 3093 3093 3095 3097 3098 3098 3098 3098 3099 3099 3098 3098 3097 3096 3094 3093 3092 3090 3090 3089 3088 3087 3087 3086 3085 3084 3083 3083 3082 3081 3077 3075 3076 3077 3078 3080 3078 3066 3063 3064 3063 3065 3066 3061
3079 3081 3083 3084 3086 3087 3088 3090 3091 3091 3091 3092 3092 3092 3093 3091 3090 3089 3088 3088 3086 3086 3086 3083 3084 3082 3081 3083 3083 3080 3077 3075 3074 3073 3072 3072 3073 3073 3076 3076 3067 3063 3062 3064 3061 3058 3055
3070 3072 3074 3076 3077 3079 3080 3081 3082 3083 3084 3085 3086 3085 3084 3085 3086 3084 3083 3082 3081 3080 3080 3079 3080 3079 3078 3078 3079 3077 3075 3073 3070 3070 3068 3069 3067 3068 3069 3063 3061 3060 3059 3057 3054 3050 3049